Regional Weather Roundup
Issued by NWS

Home | Current Version | Previous Version | Graphics & Text | Print | Product List | Glossary On
Versions: 1 2 3 4 5 6 7 8 9 10 11 12 13 14 15 16 17 18 19 20 21 22 23 24 25 26 27 28 29 30 31 32 33 34 35 36 37 38 39 40 41 42 43 44 45 46 47 48 49 50
000
ASUS45 KABQ 272201
RWRNM
NEW MEXICO REGIONAL WEATHER ROUNDUP
NATIONAL WEATHER SERVICE ALBUQUERQUE NM
400 PM MDT MON JUL 27 2015

NOTE: "FAIR" MEANS FEW OR NO CLOUDS BELOW 12,000 FEET AGL WITH NO
       SIGNIFICANT WEATHER OR OBSTRUCTIONS TO VISION.

      THIS PRODUCT IS RELEASED AS TWO VERSIONS.  ONE VERSION NEAR
      THE TOP OF THE HOUR CONTAINING PRELIMINARY DATA FROM ALBUQUERQUE
      AND OTHER STATIONS.  A FINAL VERSION WITH ADDITIONAL DATA IS
      ISSUED ABOUT 10 MINUTES AFTER THE HOUR.

NMZ501-503-504-510>518-272300-
NORTHWEST PLATEAU/NORTHCENTRAL MOUNTAINS

CITY           SKY/WX    TMP DP  RH WIND       PRES   REMARKS
FARMINGTON     MOSUNNY   89  36  15 W9        30.02F
SANTA FE       SUNNY     86  48  26 W14       30.13S
TAOS           CLOUDY    79  46  31 W12       30.20F

$$
NMZ402-403-502-505>509-272300-
WESTCENTRAL MOUNTAINS/SOUTHWEST MOUNTAINS

CITY           SKY/WX    TMP DP  RH WIND       PRES   REMARKS
GALLUP         SUNNY     88  37  16 W16       30.14F
SILVER CITY      N/A     91  46  21 NW12G20   30.08F

$$
NMZ407-409-411-412-272300-
SOUTHERN DESERTS

CITY           SKY/WX    TMP DP  RH WIND       PRES   REMARKS
DEMING         SUNNY     95  47  19 W12G23    29.98F
ALAMOGORDO     MOSUNNY   95  52  23 E9        29.95F
T OR C         MOSUNNY   93  51  23 NW9       30.00F

$$
NMZ519>523-272300-
CENTRAL VALLEYS/CENTRAL HIGHLANDS

CITY           SKY/WX    TMP DP  RH WIND       PRES   REMARKS
ALBUQUERQUE    MOSUNNY   90  48  23 VRB5      30.06F
DOUBLE EAGLE   PTSUNNY   88  48  25 VRB7      30.11F
MORIARTY ARPT    N/A     89  45  22 W14       30.13S
CLINES CORNERS MOSUNNY   83  49  30 W13G22    30.18F
BELEN          FAIR      91  44  19 E9        30.04F
SOCORRO        NOT AVBL

$$
NMZ524>526-539-540-272300-
SOUTHCENTRAL MOUNTAINS

CITY           SKY/WX    TMP DP  RH WIND       PRES   REMARKS
RUIDOSO          N/A    N/A N/A N/A MISG        N/A

$$
NMZ527>531-272300-
NORTHEAST HIGHLANDS/NORTHEAST PLAINS

CITY           SKY/WX    TMP DP  RH WIND       PRES   REMARKS
LAS VEGAS      PTSUNNY   75  54  47 S20       30.17R
RATON          MOSUNNY   90  46  21 SW17      30.06F
CLAYTON        MOSUNNY   93  55  27 S18G28    29.97F

$$
NMZ532>537-272300-
EASTCENTRAL PLAINS

CITY           SKY/WX    TMP DP  RH WIND       PRES   REMARKS
TUCUMCARI      SUNNY    100  49  17 SW15G25   29.90F HX  97
CANNON AFB     SUNNY     99  51  20 S13G23    29.95F HX  96
CLOVIS AIRPORT SUNNY     97  55  24 SE16G32   29.97F HX  95

$$
NMZ028-029-538-272300-
SOUTHEAST PLAINS

CITY           SKY/WX    TMP DP  RH WIND       PRES   REMARKS
ROSWELL        MOSUNNY  102  51  18 S12G21    29.89F HX  99
ARTESIA        MOSUNNY   97  57  26 VRB5      29.90F HX  95
CARLSBAD       PTSUNNY   97  54  23 MISG      29.87F THUNDER HX  95
HOBBS          MOSUNNY  100  50  18 SE9G21    29.92F HX  97


$$


USA.gov is the U.S. government's official web portal to all federal, state and local government web resources and services.